Location: Lake Mineral Wells State Park
(32.8157°N, 98.0290°W)
Time: 09:04:18
(UTC-05:00)

Envisat - Visible Passes

Search period start: 21 March 2019 00:00
Search period end: 31 March 2019 00:00
Orbit: 764 x 766 km, 98.2° (Epoch: 21 March)

Date Brightness Start Highest point End Pass type
(mag) Time Alt. Az. Time Alt. Az. Time Alt. Az.
21 Mar 4.7 20:54:12 10° SSW 20:58:49 35° W 21:03:27 10° NNW visible
22 Mar 3.1 20:16:56 10° SSE 20:22:01 86° WSW 20:27:07 10° NNW visible
23 Mar 5.7 21:20:58 10° SW 21:24:30 19° W 21:28:01 10° NW visible
24 Mar 4.2 20:42:43 10° S 20:47:34 45° W 20:52:26 10° NNW visible
25 Mar 3.0 20:05:46 10° SSE 20:10:49 73° ENE 20:15:53 10° N visible
26 Mar 5.3 21:09:07 10° SSW 21:13:12 24° W 21:17:18 10° NW visible
27 Mar 3.6 20:31:21 10° S 20:36:19 60° W 20:41:21 10° NNW visible
28 Mar 6.0 21:36:42 10° WSW 21:38:55 13° W 21:41:09 10° WNW visible
29 Mar 4.9 20:57:27 10° SSW 21:01:56 31° W 21:06:26 10° NW visible
30 Mar 3.2 20:20:03 10° S 20:25:06 78° WSW 20:30:12 10° NNW visible
